Weather History for Dushanbe, Tajikistan

Change the Weather History Date:

Saturday, February 16, 2013

  Actual Average Record
Temperature  
Mean Temperature 45 °F -  
Max Temperature 58 °F - - ()
Min Temperature 32 °F - - ()
Degree Days  
Heating Degree Days 20    
Moisture  
Dew Point 29 °F    
Average Humidity 56    
Maximum Humidity 92    
Minimum Humidity 16    
Precipitation  
Precipitation 0.00 in 0.12 in - ()
Sea Level Pressure  
Sea Level Pressure 30.06 in    
Wind  
Wind Speed 3 mph ()    
Max Wind Speed 11 mph    
Max Gust Speed -    
Visibility 5.0 miles    
Events      
T = Trace of Precipitation, MM = Missing Value Source: Averaged Metar Reports

Daily Weather History Graph

Daily Weather History Graph

Search for Another Location

Airport:

Trip Planner

Search our weather history database for the weather conditions in past years. The results will help you decide how hot, cold, wet, or windy it might be!

Date:

Astronomy

Feb. 16, 2013 Rise Set
Actual Time 7:14 AM TJT 6:03 PM TJT
Civil Twilight 6:47 AM TJT 6:30 PM TJT
Nautical Twilight 6:16 AM TJT 7:01 PM TJT
Astronomical Twilight 5:45 AM TJT 7:32 PM TJT
Moon 10:16 AM TJT (2/16) No Moon Set
Length of Visible Light 11h 43m
Length of Day
10h 49m
Waxing Crescent, 35% of the Moon is Illuminated
Feb 16
Waxing Crescent
Feb 18
First Quarter
Feb 26
Full
Mar 5
Last Quarter
Mar 12
New

Hourly Weather History & Observations

Time (TJT) Temp. Windchill Dew Point Humidity Pressure Visibility Wind Dir Wind Speed Gust Speed Precip Events Conditions
12:00 AM 42.8 °F 40.2 °F 32.0 °F 66% 30.15 in 5.6 mi WNW 4.5 mph - N/A   Overcast
12:30 AM 42.8 °F - 32.0 °F 66% 30.15 in 5.0 mi SSE 2.2 mph - N/A   Overcast
1:00 AM 42.8 °F - 33.8 °F 70% 30.15 in 4.3 mi Calm Calm - N/A   Overcast
1:30 AM 41.0 °F - 35.6 °F 81% 30.15 in 4.3 mi SE 2.2 mph - N/A   Overcast
2:00 AM 42 °F - 33 °F 61% 30.21 in - Calm Calm - -   Mostly Cloudy
2:00 AM 41.0 °F 38.1 °F 35.6 °F 81% 30.15 in 4.3 mi East 4.5 mph - N/A   Overcast
2:30 AM 41.0 °F 38.1 °F 35.6 °F 81% 30.12 in 4.3 mi East 4.5 mph - N/A   Overcast
3:00 AM 41.0 °F 38.1 °F 35.6 °F 81% 30.12 in 4.3 mi East 4.5 mph - N/A   Overcast
3:30 AM 41.0 °F - 35.6 °F 81% 30.12 in 4.3 mi Variable 2.2 mph - N/A   Overcast
4:00 AM 41.0 °F - 35.6 °F 81% 30.12 in 3.7 mi Calm Calm - N/A   Overcast
4:30 AM 41.0 °F - 35.6 °F 81% 30.12 in 3.7 mi Calm Calm - N/A   Overcast
5:00 AM 39 °F - 35 °F 80% 30.19 in - Calm Calm - -   Partly Cloudy
5:00 AM 41.0 °F 38.1 °F 33.8 °F 76% 30.12 in 3.7 mi North 4.5 mph - N/A   Overcast
5:30 AM 41.0 °F 38.1 °F 32.0 °F 70% 30.12 in 4.3 mi North 4.5 mph - N/A   Overcast
6:00 AM 39.2 °F 36.0 °F 32.0 °F 75% 30.12 in 4.3 mi NNW 4.5 mph - N/A   Mostly Cloudy
6:30 AM 39.2 °F 36.0 °F 33.8 °F 81% 30.12 in 3.7 mi NNE 4.5 mph - N/A   Scattered Clouds
7:00 AM 37.4 °F - 33.8 °F 87% 30.12 in 3.1 mi Calm Calm - N/A   Scattered Clouds
7:30 AM 37.4 °F 33.9 °F 33.8 °F 87% 30.12 in 1.9 mi ENE 4.5 mph - N/A   Scattered Clouds
8:00 AM 33 °F - 32 °F 92% 30.22 in 31 mi Calm Calm - -   Scattered Clouds
8:00 AM 37.4 °F - 33.8 °F 87% 30.12 in - North 2.2 mph - N/A   Partly Cloudy
8:30 AM 39.2 °F - 33.8 °F 81% 30.12 in 1.2 mi Variable 2.2 mph - N/A   Partly Cloudy
9:00 AM 41.0 °F - 35.6 °F 81% 30.12 in 1.5 mi East 2.2 mph - N/A   Partly Cloudy
9:30 AM 42.8 °F 40.2 °F 35.6 °F 76% 30.12 in 1.9 mi ESE 4.5 mph - N/A   Smoke
10:00 AM 44.6 °F - 35.6 °F 71% 30.12 in 3.1 mi Variable 2.2 mph - N/A   Smoke
10:30 AM 46.4 °F - 35.6 °F 66% 30.12 in 3.7 mi Variable 2.2 mph - N/A   Partly Cloudy
11:00 AM 51 °F - 32 °F 35% 30.10 in 31 mi Calm Calm - -   Scattered Clouds
11:00 AM 46.4 °F - 35.6 °F 66% 30.09 in 5.0 mi Variable 2.2 mph - N/A   Partly Cloudy
11:30 AM 48.2 °F - 32.0 °F 54% 30.09 in 5.0 mi SE 4.5 mph - N/A   Partly Cloudy
12:00 PM 50.0 °F - 30.2 °F 47% 30.09 in 6.2 mi ESE 4.5 mph - N/A   Partly Cloudy
12:30 PM 50.0 °F - 26.6 °F 40% 30.06 in 6.2 mi ENE 4.5 mph - N/A   Partly Cloudy
1:00 PM 51.8 °F - 26.6 °F 38% 30.04 in 6.2 mi ESE 4.5 mph - N/A   Partly Cloudy
1:30 PM 53.6 °F - 26.6 °F 35% 30.04 in 6.2 mi Variable 2.2 mph - N/A   Partly Cloudy
2:00 PM 55 °F - 25 °F 19% 30.01 in 31 mi Calm Calm - -   Scattered Clouds
2:00 PM 53.6 °F - 26.6 °F 35% 30.01 in 6.2 mi Variable 2.2 mph - N/A   Partly Cloudy
2:30 PM 53.6 °F - 21.2 °F 28% 30.01 in 6.2 mi Variable 2.2 mph - N/A   Partly Cloudy
3:00 PM 53.6 °F - 23.0 °F 30% 30.01 in 6.2 mi SSE 4.5 mph - N/A   Partly Cloudy
3:30 PM 55.4 °F - 24.8 °F 31% 29.98 in 6.2 mi SE 4.5 mph - N/A   Partly Cloudy
4:00 PM 55.4 °F - 26.6 °F 33% 29.98 in 6.2 mi SE 4.5 mph - N/A   Partly Cloudy
4:30 PM 55.4 °F - 24.8 °F 31% 29.98 in 6.2 mi Variable 2.2 mph - N/A   Partly Cloudy
5:00 PM 56 °F - 23 °F 16% 29.95 in 31 mi Calm Calm - -   Scattered Clouds
5:00 PM 53.6 °F - 24.8 °F 33% 29.95 in 6.2 mi SSE 4.5 mph - N/A   Partly Cloudy
5:30 PM 51.8 °F - 26.6 °F 38% 29.95 in 6.2 mi ESE 8.9 mph - N/A   Partly Cloudy
6:00 PM 48.2 °F - 26.6 °F 43% 29.95 in 6.2 mi East 8.9 mph - N/A   Partly Cloudy
6:30 PM 48.2 °F - 23.0 °F 37% 29.98 in 6.2 mi East 8.9 mph - N/A   Partly Cloudy
7:00 PM 48.2 °F - 23.0 °F 37% 29.98 in 6.2 mi ENE 6.7 mph - N/A   Partly Cloudy
7:30 PM 46.4 °F 42.0 °F 23.0 °F 40% 29.98 in 6.2 mi ENE 8.9 mph - N/A   Partly Cloudy
8:00 PM 46 °F - 22 °F 26% 30.02 in - Calm Calm - -  
8:00 PM 46.4 °F 41.2 °F 21.2 °F 37% 29.98 in 6.2 mi ENE 11.2 mph - N/A   Partly Cloudy
8:30 PM 46.4 °F 41.2 °F 21.2 °F 37% 29.98 in 6.2 mi East 11.2 mph - N/A   Partly Cloudy
9:00 PM 44.6 °F 39.8 °F 21.2 °F 39% 29.98 in 6.2 mi East 8.9 mph - N/A   Partly Cloudy
9:30 PM 41.0 °F 36.5 °F 23.0 °F 49% 29.95 in 6.2 mi East 6.7 mph - N/A   Clear
10:00 PM 42.8 °F 40.2 °F 23.0 °F 46% 29.95 in 6.2 mi NE 4.5 mph - N/A   Scattered Clouds
10:30 PM 42.8 °F 40.2 °F 24.8 °F 49% 29.95 in 6.2 mi NE 4.5 mph - N/A   Partly Cloudy
11:00 PM 40 °F - 21 °F 34% 30.03 in - Calm Calm - -  
11:00 PM 42.8 °F - 24.8 °F 49% 29.95 in 6.2 mi Variable 2.2 mph - N/A   Clear
11:30 PM 41.0 °F - 26.6 °F 57% 29.95 in 6.2 mi Variable 2.2 mph - N/A   Clear